Time,TemperatureF,DewpointF,PressureIn,WindDirection,WindDirectionDegrees,WindSpeedMPH,WindSpeedGustMPH,Humidity,HourlyPrecipIn,Conditions,Clouds,dailyrainin,SoftwareType,DateUTC
2015-03-06 00:00:00,65.5,64.0,30.13,WSW,242,0.0,0.0,94,0.00,,,0.00,weatherlink.com 1.10,2015-03-06 05:00:00,
2015-03-06 00:15:00,65.7,64.0,30.13,WSW,242,0.0,0.0,94,0.00,,,0.00,weatherlink.com 1.10,2015-03-06 05:15:00,
2015-03-06 00:30:00,66.1,65.0,30.12,WSW,242,0.0,0.0,95,0.00,,,0.00,weatherlink.com 1.10,2015-03-06 05:30:00,
2015-03-06 00:45:00,66.0,65.0,30.12,WSW,242,0.0,0.0,95,0.00,,,0.00,weatherlink.com 1.10,2015-03-06 05:45:00,
2015-03-06 01:00:00,65.8,64.0,30.11,WSW,242,1.0,2.0,95,0.00,,,0.00,weatherlink.com 1.10,2015-03-06 06:00:00,
2015-03-06 01:15:00,66.4,65.0,30.11,South,187,0.0,1.0,95,0.00,,,0.00,weatherlink.com 1.10,2015-03-06 06:15:00,
2015-03-06 01:30:00,66.1,64.0,30.11,West,267,1.0,2.0,94,0.00,,,0.00,weatherlink.com 1.10,2015-03-06 06:30:00,
2015-03-06 01:45:00,66.1,65.0,30.11,West,267,0.0,0.0,95,0.00,,,0.00,weatherlink.com 1.10,2015-03-06 06:45:00,
2015-03-06 02:00:00,66.9,66.0,30.11,West,267,0.0,0.0,96,0.00,,,0.00,weatherlink.com 1.10,2015-03-06 07:00:00,
2015-03-06 02:15:00,67.9,67.0,30.11,West,267,0.0,0.0,96,0.00,,,0.00,weatherlink.com 1.10,2015-03-06 07:15:00,
2015-03-06 02:30:00,68.5,67.0,30.10,West,267,0.0,1.0,96,0.00,,,0.00,weatherlink.com 1.10,2015-03-06 07:30:00,
2015-03-06 02:45:00,69.0,68.0,30.10,West,260,0.0,3.0,96,0.00,,,0.00,weatherlink.com 1.10,2015-03-06 07:45:00,
2015-03-06 03:00:00,69.5,68.0,30.10,West,260,0.0,1.0,95,0.00,,,0.00,weatherlink.com 1.10,2015-03-06 08:00:00,
2015-03-06 03:15:00,69.7,68.0,30.10,West,261,0.0,2.0,95,0.00,,,0.00,weatherlink.com 1.10,2015-03-06 08:15:00,
2015-03-06 03:30:00,69.8,68.0,30.10,West,261,0.0,1.0,95,0.00,,,0.00,weatherlink.com 1.10,2015-03-06 08:30:00,
2015-03-06 03:45:00,69.9,69.0,30.10,NW,311,0.0,4.0,95,0.00,,,0.00,weatherlink.com 1.10,2015-03-06 08:45:00,
2015-03-06 04:00:00,69.7,68.0,30.10,NW,311,1.0,3.0,95,0.00,,,0.00,weatherlink.com 1.10,2015-03-06 09:00:00,
2015-03-06 04:15:00,69.5,68.0,30.10,NW,311,1.0,2.0,95,0.00,,,0.00,weatherlink.com 1.10,2015-03-06 09:15:00,
2015-03-06 04:30:00,69.0,68.0,30.11,NW,311,0.0,2.0,95,0.00,,,0.00,weatherlink.com 1.10,2015-03-06 09:30:00,
2015-03-06 04:45:00,68.9,68.0,30.11,NW,311,0.0,2.0,95,0.00,,,0.00,weatherlink.com 1.10,2015-03-06 09:45:00,
2015-03-06 05:00:00,68.6,67.0,30.11,NW,311,1.0,2.0,95,0.00,,,0.00,weatherlink.com 1.10,2015-03-06 10:00:00,
2015-03-06 05:15:00,68.5,67.0,30.12,NW,311,0.0,1.0,95,0.00,,,0.00,weatherlink.com 1.10,2015-03-06 10:15:00,
2015-03-06 05:30:00,68.4,67.0,30.12,North,355,1.0,3.0,95,0.00,,,0.00,weatherlink.com 1.10,2015-03-06 10:30:00,
2015-03-06 05:45:00,68.3,67.0,30.13,North,355,1.0,3.0,95,0.00,,,0.00,weatherlink.com 1.10,2015-03-06 10:45:00,
2015-03-06 06:00:00,68.1,67.0,30.14,North,355,0.0,6.0,95,0.00,,,0.00,weatherlink.com 1.10,2015-03-06 11:00:00,
2015-03-06 06:15:00,68.2,67.0,30.14,North,355,0.0,1.0,95,0.00,,,0.00,weatherlink.com 1.10,2015-03-06 11:15:00,
2015-03-06 06:30:00,68.2,67.0,30.14,North,355,0.0,1.0,95,0.00,,,0.00,weatherlink.com 1.10,2015-03-06 11:30:00,
2015-03-06 06:45:00,68.1,67.0,30.14,North,355,0.0,0.0,95,0.00,,,0.00,weatherlink.com 1.10,2015-03-06 11:45:00,
2015-03-06 07:00:00,68.0,67.0,30.14,North,355,1.0,2.0,95,0.00,,,0.00,weatherlink.com 1.10,2015-03-06 12:00:00,
2015-03-06 07:15:00,68.0,67.0,30.15,North,355,1.0,4.0,95,0.00,,,0.00,weatherlink.com 1.10,2015-03-06 12:15:00,
2015-03-06 07:30:00,68.1,67.0,30.15,North,355,0.0,2.0,95,0.00,,,0.00,weatherlink.com 1.10,2015-03-06 12:30:00,
2015-03-06 07:45:00,68.2,67.0,30.16,North,355,0.0,2.0,95,0.00,,,0.00,weatherlink.com 1.10,2015-03-06 12:45:00,
2015-03-06 08:00:00,68.3,67.0,30.17,North,355,0.0,1.0,95,0.00,,,0.00,weatherlink.com 1.10,2015-03-06 13:00:00,
2015-03-06 08:15:00,68.1,67.0,30.17,NNE,19,1.0,4.0,95,0.00,,,0.00,weatherlink.com 1.10,2015-03-06 13:15:00,
2015-03-06 08:30:00,68.1,67.0,30.18,NNE,19,1.0,4.0,95,0.00,,,0.00,weatherlink.com 1.10,2015-03-06 13:30:00,
2015-03-06 08:46:00,68.2,67.0,30.18,NNE,23,1.0,2.0,95,0.00,,,0.00,weatherlink.com 1.10,2015-03-06 13:46:00,
2015-03-06 09:01:00,68.5,67.0,30.18,NNE,24,1.0,3.0,95,0.00,,,0.00,weatherlink.com 1.10,2015-03-06 14:01:00,
2015-03-06 09:16:00,68.5,67.0,30.19,East,101,0.0,5.0,95,0.00,,,0.00,weatherlink.com 1.10,2015-03-06 14:16:00,
2015-03-06 09:31:00,68.7,67.0,30.19,ESE,106,0.0,4.0,94,0.00,,,0.00,weatherlink.com 1.10,2015-03-06 14:31:00,
2015-03-06 09:46:00,69.0,67.0,30.19,East,98,5.0,5.0,93,0.00,,,0.00,weatherlink.com 1.10,2015-03-06 14:46:00,